Regional Weather Roundup
Issued by NWS

Home | Current Version | Previous Version | Graphics & Text | Print | Product List | Glossary On
Versions: 1 2 3 4 5 6 7 8 9 10 11 12 13 14 15 16 17 18 19 20 21 22 23 24 25 26 27 28 29 30 31 32 33 34 35 36 37 38 39 40 41 42 43 44 45 46 47 48 49 50
000
ASUS43 KLOT 280006
RWRIL

ILLINOIS REGIONAL WEATHER ROUNDUP
NATIONAL WEATHER SERVICE CHICAGO/ROMEOVILLE IL
600 PM CST TUE JAN 27 2015

NOTE: "FAIR" INDICATES FEW OR NO CLOUDS BELOW 12,000 FEET WITH NO
SIGNIFICANT WEATHER AND/OR OBSTRUCTIONS TO VISIBILITY.

* THESE STATIONS ARE NOT UNDER NWS QUALITY CONTROL. THEY ALSO MAY NOT
  REPORT WEATHER SUCH AS PRECIPITATION OR FOG.

ILZ001-002-007-009-015-016-024-280100-
NORTHWEST ILLINOIS

CITY           SKY/WX    TMP DP  RH WIND       PRES   REMARKS
MOLINE         CLOUDY    28  22  78 E7        30.24S WCI  21
6HR MIN TEMP:  27; 6HR MAX TEMP:  30;

STERLING*      CLOUDY    28  25  86 CALM      30.24R
SAVANNA*       CLOUDY    29  23  79 CALM      30.23F
$$

ILZ003-004-008-010-011-017-018-280100-
NORTH CENTRAL ILLINOIS

CITY           SKY/WX    TMP DP  RH WIND       PRES   REMARKS
ROCKFORD       CLOUDY    29  24  82 CALM      30.25R
6HR MIN TEMP:  29; 6HR MAX TEMP:  31;

FREEPORT*      CLOUDY    28  26  89 CALM      30.25R
ROCHELLE*      CLOUDY    27  22  79 CALM      30.24S
DE KALB*       CLEAR     24  20  86 CALM      30.22S
PERU*          CLOUDY    30  25  82 NE7       30.24S WCI  23
$$

ILZ005-006-012>014-019>023-280100-
NORTHEAST ILLINOIS

CITY           SKY/WX    TMP DP  RH WIND       PRES   REMARKS
CHICAGO-OHARE  PTCLDY    26  15  63 NE8       30.23R WCI  18
6HR MIN TEMP:  26; 6HR MAX TEMP:  32;

CHICAGO-MIDWAY PTCLDY    28  17  63 NE8       30.24R WCI  20
6HR MIN TEMP:  28; 6HR MAX TEMP:  33;

AURORA         CLOUDY    28  22  78 W3        30.23S
6HR MIN TEMP:  27; 6HR MAX TEMP:  32;

LANSING*       CLEAR     26  17  68 N3        30.24S
JOLIET*        CLEAR     27  18  69 CALM      30.23S
WAUKEGAN       CLEAR     22  16  78 NE5       30.24R WCI  16
6HR MIN TEMP:  22; 6HR MAX TEMP:  29;

DUPAGE AIRPORT CLEAR     26  17  68 E6        30.22S WCI  19
6HR MIN TEMP:  26; 6HR MAX TEMP:  33;

KANKAKEE*      CLEAR     26  19  73 NE5       30.24R WCI  20
WHEELING       CLEAR     26  16  65 NE7       30.25S WCI  18
6HR MIN TEMP:  26; 6HR MAX TEMP:  31;

MORRIS*        CLEAR     26  23  85 NW3       30.23R
ROMEOVILLE*    CLEAR     27  17  67 NE8       30.23S WCI  18
NORTHERLY ISL    N/A     27  18  69 N7          N/A  WCI  20
$$

LMZ740>746-280100-
SOUTHERN LAKE MICHIGAN

STATION/POSITION SKY/WX   TEMP    WIND        PRES    VSBY  WAVE
                          AIR SEA DIR/SP/G                  HT/PER
                          (F)     (DEG/KT/KT) (MB)    (MI)  (FT/S)
WAUKEGAN HARBOR            25     360/  6/ 13   N/A
HARRISON CRIB              27     350/ 11/ 13   N/A
BURNHAM HARBOR             27     350/  7/ 10   N/A
CALUMET HARBOR             27     340/  8/  9   N/A
MICHIGAN CITY              27     350/ 12/ 14   N/A
$$

ILZ025>027-034>036-040-047-049-050-058-095>099-280100-
WEST-CENTRAL ILLINOIS

CITY           SKY/WX    TMP DP  RH WIND       PRES   REMARKS
QUINCY         CLEAR     32  27  81 E7        30.20R WCI  26
GALESBURG*     CLOUDY    27  24  88 NE5       30.23S WCI  22
MACOMB*        CLOUDY    30  27  90 NE6       30.25S WCI  24
JACKSONVILLE*  CLOUDY    33  28  85 NE6       30.23S WCI  27
PITTSFIELD*    CLEAR     32  28  86 E6        30.23R WCI  27
$$

ILZ028>032-037-038-041>044-048-051>054-059>061-280100-
CENTRAL ILLINOIS

CITY           SKY/WX    TMP DP  RH WIND       PRES   REMARKS
PONTIAC        CLOUDY    32  28  87 N5        30.24S WCI  27
BLOOMINGTON    CLOUDY    31  26  81 NW6       30.23S WCI  25
DECATUR        CLOUDY    30  25  81 NE6       30.24R WCI  24
PEORIA         CLOUDY    31  24  75 CALM      30.24S
6HR MIN TEMP:  31; 6HR MAX TEMP:  33;

LACON*         CLOUDY    30  24  78 CALM      30.24S
LINCOLN*       CLOUDY    33  27  80 CALM      30.24F
SPRINGFIELD    CLOUDY    32  26  78 E6        30.24R WCI  26
6HR MIN TEMP:  32; 6HR MAX TEMP:  34;

TAYLORVILLE    CLOUDY    32  28  86 N5        30.24R WCI  27
$$

ILZ033-039-045-046-055>057-062-063-280100-
EAST-CENTRAL ILLINOIS

CITY           SKY/WX    TMP DP  RH WIND       PRES   REMARKS
CHAMPAIGN      PTCLDY    26  22  84 N6        30.23R WCI  19
DANVILLE*      CLEAR     25  19  80 NW3       30.20R
RANTOUL*       CLEAR     29  22  78 N5        30.23R WCI  23
MATTOON        MOCLDY    30  24  78 N7        30.22R WCI  23
PARIS*         CLEAR     27  22  80 CALM      30.24R
$$

ILZ079-100>102-280100-
SOUTHWEST ILLINOIS

CITY           SKY/WX    TMP DP  RH WIND       PRES   REMARKS
ALTON          PTCLDY    32  28  86 NE5       30.23R WCI  27
BELLEVILLE     CLEAR     34  30  87 NE7       30.22R WCI  27
CAHOKIA*       CLEAR     37  30  75 E10       30.21R WCI  30
SPARTA*        PTCLDY    35  30  83 NE7       30.22R WCI  29
$$

ILZ064>066-069>071-074>076-080>082-084>086-088>090-092>094-280100-
SOUTH-CENTRAL ILLINOIS

CITY           SKY/WX    TMP DP  RH WIND       PRES   REMARKS
CARBONDALE     PTCLDY    37  27  67 N6        30.21R WCI  32
6HR MIN TEMP:  37; 6HR MAX TEMP:  43;

CAIRO*         CLEAR     42  31  65 N5        30.20R
EFFINGHAM*     CLOUDY    32  26  77 NW3       30.25R
MARION         CLOUDY    39  30  70 NE9       30.22R WCI  33
MT. VERNON     PTCLDY    34  25  69 N3        30.23R
CENTRALIA*     CLEAR     33  28  81 N3        30.23R
SALEM*         PTCLDY    34  30  86 N5        30.23R WCI  30
METROPOLIS*    CLOUDY    40  32  73 CALM      30.20R
$$

ILZ067-068-072-073-078-083-087-091-280100-
SOUTHEAST ILLINOIS

CITY           SKY/WX    TMP DP  RH WIND       PRES   REMARKS
LAWRENCEVILLE  CLOUDY    32  29  88 N7        30.23R WCI  26
FLORA*         CLOUDY    33  29  87 N3        30.24R
FAIRFIELD*     CLOUDY    35  30  83 N3        30.22R
HARRISBURG*    CLOUDY    37  30  78 NE7       30.23S WCI  31
ROBINSON*      CLOUDY    32  29  88 N5        30.23R WCI  27
CARMI*         CLOUDY    36  32  85 N8        30.22R WCI  30
$$

ABBREVIATIONS USED IN REMARKS
   TC - TEMPERATURE IN CELSIUS
  WCI - WIND CHILL INDEX
   HX - HEAT INDEX
  VSB - VISIBILITY
$$



USA.gov is the U.S. government's official web portal to all federal, state and local government web resources and services.